Location: Mountain Grove
(34.0887°N, 86.6172°W)
Time: 15:15:56
(UTC+00:00)

USA 186 - Pass Details

Date: 14 July 2020
Orbit: 262 x 435 km, 96.9° (Epoch: 12 August)

Event Time Altitude Azimuth Distance (km) Brightness Sun altitude
Rises 01:47:18 0° 183° (S) 2,394 5.3 -9.4°
Reaches altitude 10° 01:49:26 10° 192° (SSW) 1,515 4.3 -9.8°
Maximum altitude 01:52:29 37° 261° (W) 664 3.2 -10.3°
Drops below altitude 10° 01:55:24 10° 331° (NNW) 1,450 5.6 -10.8°
Sets 01:57:27 0° 340° (NNW) 2,289 6.5 -11.1°
